Regional Weather Roundup
Issued by NWS

Home | Current Version | Previous Version | Text Only | Print | Product List | Glossary Off
Versions: 1 2 3 4 5 6 7 8 9 10 11 12 13 14 15 16 17 18 19 20 21 22 23 24 25 26 27 28 29 30 31 32 33 34 35 36 37 38 39 40 41 42 43 44 45 46 47 48 49 50

000
ASUS43 KOAX 252002
RWRNE

WEATHER ROUNDUP FOR NEBRASKA
NATIONAL WEATHER SERVICE OMAHA NE
300 PM CDT FRI JUL 25 2014

NOTES: SATELLITE DATA IS BEING USED TO AUGMENT CLOUD COVER ABOVE
       12000 FEET.
       "FAIR" INDICATES FEW OR NO CLOUDS BELOW 12,000 FEET WITH NO
       SIGNIFICANT WEATHER AND/OR OBSTRUCTIONS TO VISIBILITY.

  * THESE STATIONS DO NOT REPORT WEATHER SUCH AS RAIN...SNOW OR FOG.

NEZ001>004-019>022-054>056-252100-
NEBRASKA PANHANDLE

CITY           SKY/WX    TMP DP  RH WIND       PRES   REMARKS
SCOTTSBLUFF    PTSUNNY   87  47  24 E8        29.99F
ALLIANCE       PTSUNNY   86  44  23 E7        29.98F
CHADRON        SUNNY     83  43  24 SE5       29.95F
KIMBALL        MOSUNNY   85  52  31 E6        30.04F
SIDNEY         MOSUNNY   90  50  25 VRB7      30.03F
$$

NEZ057>060-069>072-079>082-252100-
SOUTHWEST NEBRASKA

CITY           SKY/WX    TMP DP  RH WIND       PRES   REMARKS
NORTH PLATTE   MOSUNNY   90  66  45 N8        29.89F HX  92
IMPERIAL       MOSUNNY   90  60  36 N10       29.95F
LEXINGTON      MOSUNNY   91  68  47 N5        29.86S HX  94
MCCOOK         MOSUNNY   95  64  35 N14       29.88S HX  97
OGALLALA       MOSUNNY   87  57  35 NE10      29.94F
$$

NEZ005>010-023>029-035>040-094-252100-
NORTH CENTRAL NEBRASKA

CITY           SKY/WX    TMP DP  RH WIND       PRES   REMARKS
VALENTINE      SUNNY     89  63  41 N16       29.88F HX  90
AINSWORTH      SUNNY     86  66  51 N10G16    29.88S
BROKEN BOW     MOSUNNY   89  70  53 N12       29.86F HX  94
O`NEILL        SUNNY     92  61  36 N10       29.82S HX  92
ORD            PTSUNNY   88  70  55 N12       29.82S HX  93
THEDFORD       PTSUNNY   86  66  50 N8        29.91F
$$

NEZ041-046>049-061>064-073>077-083>087-252100-
SOUTH CENTRAL NEBRASKA

CITY           SKY/WX    TMP DP  RH WIND       PRES   REMARKS
GRAND ISLAND   MOSUNNY   94  67  41 N12       29.80S HX  97
AURORA         MOSUNNY   90  72  54 N7        29.79S HX  97
HASTINGS       MOSUNNY   91  65  41 NW10      29.81R HX  93
HEBRON         MOSUNNY   96  64  33 SW6       29.75F HX  98
HOLDREGE       MOSUNNY   89  67  48 N6        29.85R HX  92
KEARNEY *      MOSUNNY   91  66  43 N15       29.83S HX  94
YORK           MOSUNNY   91  73  55 NW8       29.78R HX 100
$$

NEZ011>018-030>034-042>045-252100-
NORTHEAST NEBRASKA

CITY           SKY/WX    TMP DP  RH WIND       PRES   REMARKS
NORFOLK        MOSUNNY   91  72  53 NW14      29.77R HX  98
ALBION         MOSUNNY   86  72  63 N8        29.80R HX  92
BLAIR          MOSUNNY   88  74  63 S6        29.75S HX  97
COLUMBUS *     MOSUNNY   90  73  58 NW6       29.76S HX  98
FREMONT        MOSUNNY   93  72  51 W5        29.74S HX 101
WAYNE          PTSUNNY   87  73  62 NW5       29.78R HX  95
$$

NEZ050>053-065>068-078-088>093-252100-
SOUTHEAST NEBRASKA

CITY           SKY/WX    TMP DP  RH WIND       PRES   REMARKS
LINCOLN        MOSUNNY   99  70  38 SW12G18   29.74S HX 106
OMAHA EPPLEY   MOSUNNY   91  74  57 SE8       29.73S HX 100
BEATRICE       MOSUNNY   96  71  43 SW7       29.73F HX 104
FALLS CITY     SUNNY    100  72  40 S12G23    29.74F HX 109
NEBRASKA CITY  MOSUNNY   97  66  36 SW14      29.72F HX 100
PLATTSMOUTH    PTSUNNY   94  69  44 S8        29.73F HX  98
$$

NEZ044-045-051>053-067-252100-
OMAHA AREA

CITY           SKY/WX    TMP DP  RH WIND       PRES   REMARKS
OMAHA EPPLEY   MOSUNNY   91  74  57 SE8       29.73S HX 100
BLAIR          MOSUNNY   88  74  63 S6        29.75S HX  97
FREMONT        MOSUNNY   93  72  51 W5        29.74S HX 101
MILLARD        PTSUNNY   93  74  53 S6        29.72S HX 103
OFFUTT AFB     PTSUNNY   93  79  64 SE6       29.72F HX 110
PLATTSMOUTH    PTSUNNY   94  69  44 S8        29.73F HX  98
WAHOO          FAIR      92  73  55 W6        29.74R HX 100
$$



USA.gov is the U.S. government's official web portal to all federal, state and local government web resources and services.